Regional Weather Roundup
Issued by NWS

Home | Current Version | Previous Version | Graphics & Text | Print | Product List | Glossary On
Versions: 1 2 3 4 5 6 7 8 9 10 11 12 13 14 15 16 17 18 19 20 21 22 23 24 25 26 27 28 29 30 31 32 33 34 35 36 37 38 39 40 41 42 43 44 45 46 47 48 49 50
707
ASUS43 KDMX 230801
RWRIA

WEATHER ROUNDUP FOR IOWA
NATIONAL WEATHER SERVICE DES MOINES IA
300 AM CDT SUN APR 23 2017

NOTE: "FAIR" INDICATES FEW OR NO CLOUDS BELOW 12,000 FEET WITH NO
SIGNIFICANT WEATHER AND/OR OBSTRUCTIONS TO VISIBILITY.

* - THESE STATIONS ARE NOT NWS STATIONS...THUS NOT UNDER NWS
QUALITY CONTROL.  THEY ALSO DO NOT REPORT WEATHER SUCH
AS PRECIPITATION OR FOG.

IAZ001>003-012>014-020>022-031>034-043>046-230900-
   NORTHWEST IOWA

CITY           SKY/WX    TMP DP  RH WIND       PRES   REMARKS
CARROLL *      PTCLDY    43  36  75 CALM      30.15F
CHEROKEE *     CLEAR     38  38 100 CALM      30.16S
DENISON *      CLEAR     37  34  87 CALM      30.18F
LE MARS *      CLEAR     39  37  93 S3        30.16F
ORANGE CITY *  CLEAR     46  36  66 SW3       30.15F
SHELDON *      MOCLDY    41  34  75 CALM      30.13S
SIOUX CITY     CLEAR     43  36  76 CALM      30.16F
SPENCER        CLEAR     39  33  79 SW6       30.14F WCI  35
STORM LAKE *   CLEAR     50  32  50 SW6       30.16S
$$

IAZ055>058-069>071-079>083-090>094-230900-
   SOUTHWEST IOWA

CITY           SKY/WX    TMP DP  RH WIND       PRES   REMARKS
ATLANTIC *     CLEAR     36  34  93 CALM      30.17F
AUDUBON *      CLEAR     34  30  86 CALM      30.17F
CLARINDA *       N/A     36  36 100 CALM      30.21F
COUNCIL BLFS * CLEAR     48  32  53 S3        30.17F
CRESTON *      CLEAR     43  32  65 W5        30.19S
HARLAN  *      CLEAR     39  36  87 CALM      30.20F
LAMONI         CLEAR     41  33  73 W5        30.16F
RED OAK *      CLEAR     36  34  93 CALM      30.18F
SHENANDOAH *   CLEAR     37  34  87 CALM      30.19F
$$

IAZ047>049-059>061-072>074-084-230900-
   CENTRAL IOWA

CITY           SKY/WX    TMP DP  RH WIND       PRES   REMARKS
AMES           CLEAR     41  34  76 CALM      30.15F
ANKENY *       CLEAR     37  34  87 CALM      30.17S
BOONE *        CLEAR     46  30  53 W8        30.15S
CHARITON *     CLEAR     45  30  57 W7        30.16S
DES MOINES     CLEAR     47  32  56 W3        30.16F
GRINNELL*      CLEAR     44  30  57 CALM      30.17S
KNOXVILLE *    CLEAR     41  34  75 SW3       30.15S
MARSHALLTOWN   CLEAR     43  34  70 CALM      30.14F
NEWTON *       CLEAR     46  28  49 SW3       30.15S
PELLA *        CLEAR     43  35  73 CALM      30.17S
PERRY *          N/A     41  32  69 W7        30.16S
$$

IAZ004>006-015-016-023>025-035-036-230900-
   NORTH CENTRAL IOWA

CITY           SKY/WX    TMP DP  RH WIND       PRES   REMARKS
ALGONA *       CLEAR     48  36  61 SW8       30.14F
CLARION *      CLEAR     41  36  81 S6        30.15S
ESTHERVILLE    CLEAR     44  36  73 SW12      30.12F
FORT DODGE *   CLEAR     43  34  70 CALM      30.16S
MASON CITY     CLEAR     50  32  50 SW9       30.14F
WEBSTER CITY * CLEAR     43  32  65 SW8       30.14S
IOWA FALLS *     N/A     45  33  62 SW7       30.16S
$$

IAZ007>011-017>019-026>030-037>042-050>054-066-230900-
   NORTHEAST IOWA

CITY           SKY/WX    TMP DP  RH WIND       PRES   REMARKS
CEDAR RAPIDS   CLEAR     43  30  60 W3        30.14S
CHARLES CITY * CLEAR     48  32  53 W6        30.14S
CLINTON *      CLEAR     43  34  70 NW3       30.14F
DECORAH *      CLEAR     48  30  49 CALM      30.12S
DUBUQUE        CLEAR     42  31  64 S3        30.13F
MONTICELLO *   CLEAR     36  34  93 CALM      30.14S
WATERLOO       CLEAR     39  34  82 CALM      30.14S
$$

IAZ064-065-067-068-078-230900-
   EAST CENTRAL IOWA

CITY           SKY/WX    TMP DP  RH WIND       PRES   REMARKS
DAVENPORT      CLEAR     41  33  73 CALM      30.14S
IOWA CITY      CLEAR     39  33  79 CALM      30.16S
MUSCATINE *    CLEAR     39  32  75 CALM      30.15S
QUAD CITIES    PTCLDY    39  34  82 CALM      30.14S
$$

IAZ062-063-075>077-085>089-095>099-230900-
   SOUTHEAST IOWA

CITY           SKY/WX    TMP DP  RH WIND       PRES   REMARKS
BURLINGTON     CLEAR     39  37  92 CALM      30.14S
FAIRFIELD *    CLEAR     37  32  81 W5        30.14F WCI  34
FORT MADISON * CLEAR     41  32  70 CALM      30.15S
KEOKUK *       CLEAR     41  37  87 N3        30.13S
OSKALOOSA *      N/A     41  30  66 W6        30.16S
OTTUMWA        CLEAR     36  31  82 W6        30.15F WCI  31
$$

ABBREVIATIONS USED IN REMARKS
   TC - TEMPERATURES IN CELSIUS
  WCI - WIND CHILL INDEX
   HX - HEAT INDEX
  VSB - VISIBILITY
$$





USA.gov is the U.S. government's official web portal to all federal, state and local government web resources and services.